Location: Boiro
(42.6475°N, 8.8834°W)
Time: 09:06:35
(UTC+02:00)

NANOSAT C BR1 - Visible Passes

Search period start: 24 September 2023 00:00
Search period end: 04 October 2023 00:00
Orbit: 568 x 582 km, 98.0° (Epoch: 23 September)

Date Brightness Start Highest point End Pass type
(mag) Time Alt. Az. Time Alt. Az. Time Alt. Az.
24 Sep ? 05:55:24 10° N 05:57:56 36° N 05:57:56 36° N visible
25 Sep ? 05:58:52 10° N 06:01:19 34° N 06:01:19 34° N visible
26 Sep ? 06:02:19 10° N 06:04:42 33° N 06:04:42 33° N visible
27 Sep ? 06:05:46 10° N 06:08:03 31° N 06:08:03 31° N visible
28 Sep ? 06:09:11 10° N 06:11:23 29° N 06:11:23 29° N visible
29 Sep ? 06:12:36 10° N 06:14:42 28° NNW 06:14:42 28° NNW visible
30 Sep ? 06:16:00 10° N 06:18:00 26° NNW 06:18:00 26° NNW visible
01 Oct ? 06:19:23 10° N 06:21:16 24° NNW 06:21:16 24° NNW visible
02 Oct ? 06:22:45 10° N 06:24:31 23° NNW 06:24:31 23° NNW visible
03 Oct ? 06:26:06 10° N 06:27:45 21° NNW 06:27:45 21° NNW visible
